Location: Unspecified
(0.0000°N, 0.0000°E)
Time: 20:12:01
(UTC+00:00)

Envisat - Visible Passes

Search period start: 25 February 2021 00:00
Search period end: 07 March 2021 00:00
Orbit: 764 x 766 km, 98.1° (Epoch: 25 February)

Date Brightness Start Highest point End Pass type
(mag) Time Alt. Az. Time Alt. Az. Time Alt. Az.
25 Feb 3.1 05:35:59 10° N 05:40:54 53° WNW 05:45:52 10° SSW visible
26 Feb 3.9 04:59:17 10° NNE 05:04:11 52° ESE 05:09:08 10° S visible
27 Feb 5.7 04:24:03 10° ENE 04:27:30 19° ESE 04:30:57 10° SE visible
28 Feb 2.9 05:24:28 10° N 05:29:31 74° WNW 05:34:35 10° SSW visible
01 Mar 4.5 04:48:07 10° NE 04:52:48 38° ESE 04:57:29 10° S visible
02 Mar 6.1 04:13:44 10° ENE 04:16:06 13° ESE 04:18:30 10° SE visible
03 Mar 3.1 05:13:03 10° NNE 05:18:07 81° ESE 05:23:12 10° S visible
04 Mar 5.1 04:37:07 10° NE 04:41:24 28° ESE 04:45:42 10° SSE visible
05 Mar 3.2 05:38:35 10° N 05:43:27 48° WNW 05:48:20 10° SSW visible
06 Mar 3.6 05:01:45 10° NNE 05:06:43 59° ESE 05:11:43 10° S visible
